Hourly Weather Roundup
Issued by NWS Central Illinois

Home | Current Version | Previous Version | Text Only | Print | Product List | Glossary On
Versions: 1 2 3 4 5 6 7 8 9 10 11 12 13 14 15 16 17 18 19 20 21 22 23 24 25 26 27 28 29 30 31 32 33 34 35 36 37 38 39 40 41 42 43 44 45 46 47 48 49 50
000
NZUS43 KILX 050810
HWRILX

AREA WEATHER ROUNDUP
NATIONAL WEATHER SERVICE, LINCOLN IL
300 AM CDT TUE MAY 05 2015


CITY           SKY/WX    TMP DP  RH WIND       PRES   REMARKS
BLOOMINGTON    CLOUDY    64  61  90 S12       30.12R
CHAMPAIGN      CLOUDY    62  59  90 E5        30.14S
DANVILLE       MOCLDY    60  59  94 E5        30.13F
DECATUR        CLOUDY    69  56  62 S12       30.12S
EFFINGHAM      PTCLDY    67  50  55 S6        30.18R
FLORA          PTCLDY    62  55  76 S6        30.18S
GALESBURG      TSTM      63  62  97 E6        30.11F
JACKSONVILLE   CLOUDY    73  56  56 SW8       30.10S
LACON          CLOUDY    61  59  94 N6        30.13R FOG
LAWRENCEVILLE  MOCLDY    61  55  81 S6        30.18S
LITCHFIELD     MOCLDY    63  54  72 S10       30.14S
$$


CITY           SKY/WX    TMP DP  RH WIND       PRES   REMARKS
LINCOLN        CLOUDY    65  61  86 S6        30.09S
MACOMB         CLOUDY    63  61  94 N7        30.13F
MATTOON        MOCLDY    68  54  60 S10       30.14S
MT CARMEL AP   CLOUDY    70  52  52 SW8       30.17F
OLNEY-NOBLE AP PTCLDY    66  54  63 S3        30.18S
PARIS          MOCLDY    68  57  67 SW12      30.15S
PEORIA         TSTM      66  62  87 N7        30.09S
PONTIAC        CLOUDY    64  63  97 SE8       30.10F
RANTOUL        CLOUDY    64  62  92 E8        30.13S FOG
ROBINSON       PTCLDY    67  54  61 SW8       30.17F
SPRINGFIELD    CLOUDY    70  55  59 S10       30.11R
TAYLORVILLE    CLOUDY    64  54  68 S13       30.13R
$$

...REGIONAL REPORTS...


CITY           SKY/WX    TMP DP  RH WIND       PRES   REMARKS
CHICAGO O`HARE LGT RAIN  53  45  74 NE7       30.17F
KANKAKEE       CLOUDY    61  61  98 E7        30.14F FOG
MOLINE         RAIN      61  59  93 E13       30.11F FOG
MOUNT VERNON   PTCLDY   N/A N/A N/A CALM      30.18S
PITTSFIELD     CLOUDY    72  56  58 NW9       30.13R
QUINCY         CLOUDY    64  61  90 E7        30.09F
ROCKFORD       HVY RAIN  51  47  86 E5        30.21R FOG
$$


CITY           SKY/WX    TMP DP  RH WIND       PRES   REMARKS
BURLINGTON     TSTM      63  62  97 N7        30.11S FOG
CEDAR RAPIDS   LGT RAIN  61  61 100 E12       30.04F
DES MOINES     CLOUDY    63  60  90 NE3       30.05S FOG
KIRKSVILLE     CLOUDY    62  61  96 SE5       30.08F
OTTUMWA        CLOUDY    60  59  96 S6        30.08R
ST LOUIS       CLOUDY    73  54  51 S9        30.14S
$$


CITY           SKY/WX    TMP DP  RH WIND       PRES   REMARKS
TERRE HAUTE    PTCLDY    66  55  67 S8        30.16S
EVANSVILLE     CLEAR     63  55  75 CALM      30.20R
INDIANAPOLIS   MOCLDY    63  59  87 SE7       30.16F
LAFAYETTE      CLOUDY    61  59  93 N5        30.16R
MADISON        CLOUDY    56  40  55 NE7       30.19S
MILWAUKEE      CLOUDY    52  35  52 NE5       30.21R
$$





USA.gov is the U.S. government's official web portal to all federal, state and local government web resources and services.